Weather History for Del Bajio, Mexico

Change the Weather History Date:

Monday, December 24, 2012

  Actual Average Record
Temperature  
Mean Temperature 63 °F -  
Max Temperature 82 °F 73 °F 82 °F (2012)
Min Temperature 44 °F 41 °F 37 °F (2003)
Degree Days  
Heating Degree Days 2    
Growing Degree Days 13 (Base 50)    
Moisture  
Dew Point 31 °F    
Average Humidity 34    
Maximum Humidity 57    
Minimum Humidity 16    
Precipitation  
Precipitation 0.00 in - - ()
Sea Level Pressure  
Sea Level Pressure 30.04 in    
Wind  
Wind Speed 2 mph ()    
Max Wind Speed 13 mph    
Max Gust Speed -    
Visibility 8.4 miles    
Events      
Averages and records for this station are not official NWS values.
T = Trace of Precipitation, MM = Missing Value Source: Averaged Metar Reports

Daily Weather History Graph

Daily Weather History Graph

Search for Another Location

Airport:

Trip Planner

Search our weather history database for the weather conditions in past years. The results will help you decide how hot, cold, wet, or windy it might be!

Date:

Astronomy

Dec. 24, 2012 Rise Set
Actual Time 7:20 AM CST 6:11 PM CST
Civil Twilight 6:55 AM CST 6:35 PM CST
Nautical Twilight 6:28 AM CST 7:03 PM CST
Astronomical Twilight 6:00 AM CST 7:30 PM CST
Moon 3:32 PM CST (12/24) 4:09 AM CST (12/24)
Length of Visible Light 11h 40m
Length of Day
10h 51m
Waxing Gibbous, 88% of the Moon is Illuminated
Dec 24
Waxing Gibbous
Dec 28
Full
Jan 4
Last Quarter
Jan 11
New
Jan 18
First Quarter

Hourly Weather History & Observations

Time (CST) Temp. Windchill Dew Point Humidity Pressure Visibility Wind Dir Wind Speed Gust Speed Precip Events Conditions
12:43 AM 51.8 °F - 30.2 °F 44% 30.21 in 8.0 mi Calm Calm - N/A   Clear
2:42 AM 48.2 °F - 30.2 °F 50% 29.86 in 8.0 mi Calm Calm - N/A   Clear
3:43 AM 46.4 °F - 30.2 °F 53% 30.18 in 8.0 mi Calm Calm - N/A   Clear
4:43 AM 46.4 °F 45.2 °F 30.2 °F 53% 30.18 in 8.0 mi North 3.5 mph - N/A   Clear
5:40 AM 46.4 °F 44.3 °F 30.2 °F 53% 29.91 in 8.0 mi NE 4.6 mph - N/A   Clear
6:41 AM 46.4 °F - 30.2 °F 53% 30.21 in 8.0 mi Calm Calm - N/A   Scattered Clouds
7:44 AM 44.6 °F - 30.2 °F 57% 30.21 in 8.0 mi Calm Calm - N/A   Mostly Cloudy
8:42 AM 57.2 °F - 32.0 °F 38% 29.98 in 8.0 mi Calm Calm - N/A   Mostly Cloudy
9:47 AM 64.4 °F - 30.2 °F 28% 30.24 in 8.0 mi Calm Calm - N/A   Mostly Cloudy
11:45 AM 73.4 °F - 32.0 °F 22% 29.87 in 8.0 mi Calm Calm - N/A   Scattered Clouds
12:49 PM 77.0 °F - 33.8 °F 21% 30.18 in 8.0 mi Calm Calm - N/A   Mostly Cloudy
1:45 PM 80.6 °F - 32.0 °F 17% 30.12 in 8.0 mi Calm Calm - N/A   Mostly Cloudy
2:47 PM 80.6 °F - 32.0 °F 17% 29.73 in 10.0 mi WSW 5.8 mph - N/A   Mostly Cloudy
4:07 PM 82.4 °F - 32.0 °F 16% 30.06 in 10.0 mi WSW 11.5 mph - N/A   Mostly Cloudy
4:47 PM 78.8 °F - 30.2 °F 17% 30.06 in 10.0 mi WSW 8.1 mph - N/A   Mostly Cloudy
5:43 PM 75.2 °F - 30.2 °F 19% 29.73 in 10.0 mi SW 11.5 mph - N/A   Mostly Cloudy
6:48 PM 69.8 °F - 30.2 °F 23% 30.06 in 8.0 mi WSW 8.1 mph - N/A   Mostly Cloudy
7:45 PM 64.4 °F - 32.0 °F 30% 30.09 in 8.0 mi West 5.8 mph - N/A   Mostly Cloudy
8:42 PM 62.6 °F - 33.8 °F 34% 29.79 in 8.0 mi West 12.7 mph - N/A   Mostly Cloudy
9:42 PM 57.2 °F - 33.8 °F 41% 30.12 in 8.0 mi Calm Calm - N/A   Mostly Cloudy
10:45 PM 57.2 °F - 32.0 °F 38% 30.15 in 8.0 mi WSW 5.8 mph - N/A   Mostly Cloudy